Back to catalog

COSMOS 1223

AliveMilitaryHEO
NORAD 12078·PAYLOAD·🇷🇺 Russia

Launched Nov 27, 1980 from Plesetsk Cosmodrome

Loading…

Next Passes (next 24 hours)

TLE

FreshSource: Space-Track

Epoch: Sep 5, 2026, 03:12 UTC

1 12078U 80095A   26248.13382162  .00000006  00000-0  00000-0 0  9994
2 12078  73.4438  43.1031 4681613 299.3627 297.9076  2.00666566335231

Track COSMOS 1223 in real time with AllMySat

Download on the App Store